Simultaneous Nadir Overpasses (SNOs) Predictions

Prediction of SNOs between AQUA and METOP-B Satellite Orbit:

Table of predicted SNOs for the next 14.0 days since TLE Epoch: 1/21/2023
Index Date (AQUA) Time (AQUA) Lat,Lon (AQUA) SZA (AQUA ) Date (METOP-B) Time (METOP-B) Lat,Lon (METOP-B) SZA (METOP-B ) Distance(km) Time Diff (sec)
1 01/23/2023 17:45:53 73.89, -90.50 93.30 01/23/2023 17:44:43 73.81, -91.98 93.28 47.05 70
2 01/23/2023 18:35:24 -74.22, 76.39 86.36 01/23/2023 18:35:16 -74.24, 76.40 86.35 1.64 8
3 01/23/2023 19:24:52 74.31,-116.16 93.72 01/23/2023 19:25:55 74.28,-116.16 93.69 3.32 63
4 01/26/2023 12:29:21 -74.19, 167.99 87.06 01/26/2023 12:28:15 -74.18, 168.03 87.06 1.30 66
5 01/26/2023 13:18:48 74.23, -24.45 92.97 01/26/2023 13:18:54 74.22, -24.55 92.97 3.34 6
6 01/26/2023 14:08:19 -74.55, 142.42 86.69 01/26/2023 14:09:29 -74.55, 143.64 86.74 36.06 70
7 01/29/2023 07:12:44 74.18, 67.19 92.21 01/29/2023 07:11:53 74.20, 67.15 92.24 1.85 51
8 01/29/2023 08:02:10 -74.25,-125.32 87.73 01/29/2023 08:02:34 -74.24,-125.42 87.74 3.12 24
9 02/01/2023 01:56:04 -74.20, -33.64 88.54 02/01/2023 01:55:33 -74.21, -33.74 88.52 3.24 31
10 02/01/2023 02:45:32 74.29, 133.78 91.55 02/01/2023 02:46:11 74.28, 133.78 91.54 0.64 39
11 02/03/2023 19:49:48 -73.76, 58.90 89.80 02/03/2023 19:48:40 -73.71, 56.82 89.75 64.99 68
12 02/03/2023 20:39:23 74.22,-134.50 90.69 02/03/2023 20:39:09 74.23,-134.59 90.70 3.05 14
13 02/03/2023 21:28:49 -74.29, 32.98 89.26 02/03/2023 21:29:50 -74.28, 32.86 89.26 3.70 61



Historial Predications of SNOs between AQUA and METOP-B
